Regional Weather Roundup
Issued by NWS Wakefield, VA

Home | Current Version | Previous Version | Graphics & Text | Print | Product List | Glossary On
Versions: 1 2 3 4 5 6 7 8 9 10 11 12 13 14 15 16 17 18 19 20 21 22 23 24 25 26 27
000
ASUS41 KAKQ 140415
RWRAKQ

REGIONAL WEATHER ROUNDUP
NATIONAL WEATHER SERVICE WAKEFIELD VA
1100 PM EST WED DEC 13 2017

Note: "fair" indicates few or no clouds below 12,000 feet with no
significant weather and/or obstructions to visibility. * = Denotes
station may not report precipitation (e.g., rain,snow,etc.),
thunder or fog.

VAZ042-051-052>054-056-140500-
NORTHERN VIRGINIA

CITY           SKY/WX    TMP DP  RH WIND       PRES   REMARKS
WASH NATIONAL  CLOUDY    36  15  42 S15       29.63F
DULLES         CLOUDY    34  12  40 S9        29.60F
FORT BELVOIR   CLOUDY    35  11  37 S7        29.63F
QUANTICO       CLOUDY    38  19  46 S16       29.65F
FREDERICKSBRG* PTCLDY    36  15  42 S7        29.63F
STAFFORD*      PTCLDY    34  11  39 S7        29.67F
WARRENTON      CLOUDY    36   8  31 S5        29.60F
CULPEPER*      CLOUDY    35  10  35 S6        29.61F
MANASSAS*      CLOUDY    34  13  41 S8        29.61F
LEESBURG*      CLOUDY    34  14  44 S6        29.60F
WINCHESTER     CLOUDY    32  12  43 CALM      29.55S
FRONT ROYAL*   CLOUDY    34  14  44 S3        29.53F
LURAY*         CLOUDY    34  14  44 SW8       29.54F
$$

VAZ048-049-060>072-079>083-140500-
CENTRAL AND SOUTH CENTRAL VIRGINIA

CITY           SKY/WX    TMP DP  RH WIND       PRES   REMARKS
RICHMOND       PTCLDY    39  15  37 S14       29.67F
CHESTERFIELD*  NOT AVBL
PETERSBURG*    CLEAR     34  12  40 S5        29.69F
HANOVER        PTCLDY    34  14  43 VRB7      29.66F
TAPPAHANNOCK*  CLEAR     35  15  43 S7        29.68F
QUINTON*       FAIR      35  15  43 S6        29.69F
CHARLOTTSVILLE CLOUDY    34  13  41 S8        29.58F
GORDONSVILLE*  CLOUDY    31  16  55 CALM      29.60F
ORANGE*        CLOUDY    32  12  43 CALM      29.60F
LOUISA*        PTCLDY    33  12  41 S7        29.65F
BUMPASS*       FAIR      35  10  36 S6        29.62F
FARMVILLE*     MOCLDY    39  18  43 SW10G16   29.62F
CREWE*         FAIR      35  16  46 S7        29.65F
FORT PICKETT*  NOT AVBL
CHASE CITY*    FAIR      36  17  45 S3        29.68F
CLARKSVILLE*   FAIR      36  18  48 S9G16     29.68F
SOUTH HILL*    CLEAR     35  17  49 S10       29.74F
LAWRENCEVILLE* FAIR      36  14  40 S9        29.69F
EMPORIA*       PTCLDY    36  18  48 SE7       29.74F
$$

VAZ088>098-140500-
SOUTHEAST VIRGINIA

CITY           SKY/WX    TMP DP  RH WIND       PRES   REMARKS
NORFOLK        CLOUDY    38  15  39 S14       29.74F
VIRGINIA BEACH CLOUDY    36  15  42 S13       29.74F
NORFOLK NAVAL  MOCLDY    38  14  37 S10G21    29.76F
WEST POINT*    CLOUDY   N/A N/A N/A S10G16    29.72F
SALUDA*        FAIR      36  20  52 S8        29.71F
NEWPORT NEWS   CLOUDY    37  17  44 S17       29.74S
LANGLEY AFB    MOCLDY    38  16  41 S17G23    29.74F
FORT EUSTIS    MOCLDY    38  16  39 S14G21    29.71S
WILLIAMSBURG*  CLOUDY    39  19  45 S12G18    29.74S
HR EXEC AP*    FAIR      35  16  45 S9        29.77F
FRANKLIN*      PTCLDY    35  16  46 S6        29.77R
US460-WAKEFLD  MOCLDY    36  16  44 S8        29.73R
$$

VAZ020-022-025-037-045-140500-
WEST CENTRAL AND SOUTHWEST VIRGINIA

CITY           SKY/WX    TMP DP  RH WIND       PRES   REMARKS
STAUNTON*      CLOUDY    33  13  45 S9        29.57F
WAYNESBORO*    CLOUDY    33  13  42 W3        29.56S
HOT SPRINGS VA CLOUDY    32  10  41 W22G31    29.47F WCI  19
LYNCHBURG      PTCLDY    34  14  43 S8        29.61F
DANVILLE       CLEAR     33  17  51 SW5       29.69F
SOUTH BOSTON*  FAIR      39  14  35 SW10G22   29.68F
MARTINSVILLE   CLEAR     35  15  43 SW8       29.68F
ROANOKE        CLOUDY    39  15  37 W9        29.61F
BLACKSBURG     CLOUDY    37  16  42 W8        29.61S
DUBLIN*        CLOUDY    41  15  35 W10G22    29.61S
MARION*        CLOUDY    36   9  32 W26G35    29.63F WCI  23
HILLSVILLE*    CLOUDY    38  15  38 W10       29.57F
RICHLANDS*     CLOUDY    36  11  36 SW16G31   29.62F
WISE*          CLOUDY    36  18  48 SW18G28   29.64F
ABINGDON*      CLOUDY    38  14  37 W15       29.69F
$$

MDZ021>025-VAZ099-100-140500-
SOUTHERN MARYLAND AND THE DELMARVA PENINSULA

CITY           SKY/WX    TMP DP  RH WIND       PRES   REMARKS
PATUXENT RIVER CLOUDY    37  18  46 S12G22    29.67F
BAY BRIDGE APT CLOUDY    37  18  44 S9G17     29.65F
LEONARDTOWN    CLOUDY    34  18  51 S6        29.68F
DOVER          FLURRIES  28  28 100 SE6       29.68F
GEORGETOWN     FLURRIES  29  27  92 S6        29.71F
EASTON         CLOUDY    35  17  48 S7        29.71F
CAMBRIDGE      CLOUDY    36  19  51 S10       29.69F
SALISBURY      LGT SNOW  32  28  85 S10       29.72S FOG     WCI  24
OCEAN CITY     LGT SNOW  33  27  78 SW14G23   29.73F WCI  23
WALLOPS ISLAND FLURRIES  34  26  72 SW15      29.73F WCI  24
ACCOMACK*      FLURRIES  35  28  75 S8        29.72F
$$

NCZ012>017-030>032-140500-
NORTH CENTRAL AND EASTERN NORTH CAROLINA

CITY           SKY/WX    TMP DP  RH WIND       PRES   REMARKS
ROANOKE RAPIDS MOCLDY    37  19  48 S9        29.75F
RALEIGH        PTCLDY    38  18  44 SW13G24   29.73F
ELIZABETH CITY CLOUDY    40  23  50 S10       29.82R
AHOSKIE*       MOCLDY    38  17  42 S9        29.77F
EDENTON*       CLOUDY    41  23  48 SW15      29.82R
CURRITUCK*     CLOUDY    38  22  52 SW7       29.81F
KILL DEVIL HLS CLOUDY    38  21  49 CALM      29.81F
MANTEO         CLOUDY    39  24  56 SW14      29.82F
CAPE HATTERAS  CLEAR     48  36  63 SW14G23   29.83F
TARBORO*       NOT AVBL
GOLDSBORO      CLOUDY    40  19  43 SW7       29.78S
WASHINGTON     CLOUDY    37  18  45 SW5       29.81S
GREENVILLE     CLOUDY    37  19  48 SW8       29.82S
NEW BERN       CLEAR     39  25  57 SW10      29.82F
WILMINGTON     CLEAR     36  28  73 SW7       29.84F
$$

VAZ048-140500-
ELSEWHERE

CITY           SKY/WX    TMP DP  RH WIND       PRES   REMARKS
HARRISBURG PA  LGT SNOW  25  23  92 SE7       29.59F FOG
BALTIMORE      CLOUDY    30  21  69 E7        29.63F
ANNAPOLIS      CLOUDY    35  17  47 S10       29.64F
ANDREWS AFB    CLOUDY    35  12  39 S12       29.61F
PHILADELPHIA   LGT SNOW  27  24  89 S8        29.71S VSB 3/4
HENDERSON NC   PTCLDY    35  15  44 SW13      29.70F
GREENSBORO     PTCLDY    36  17  46 SW12      29.68F
ROCKY MOUNT    CLOUDY    39  20  46 S10       29.77F
$$

VAZ100-140500-
MARINE

STATION/POSITION TIME  TEMP    WIND        PRES    WAVE   SWELL
                       AIR SEA DIR/SP/G            HT/PER HT/PER
                 (UTC) (F)     (DEG/KT/KT) (MB)    (FT/S) (FT/S)
BRANDYWINE LGT   0336   30     230/ 19/ 22 1006.9F
CAPE MAY NJ      0342   30 36  240/ 17/ 21 1006.2F
LEWES DE         0336   28 42  210/  5/  7 1006.4F
15NM E FENWICK I 0350   36 52  220/ 23/ 29 1006.6F   4/ 5
OCEAN-CITY-INLET 0336   35 40  240/ 14/ 17 1006.9F
WACHAPREAGUE VA  0336   36 36  200/ 15/ 21 1007.2F
THOMAS POINT MD  0400   38 44  190/ 23/ 27   N/A
GOOSES REEF MD   0400   38 45  190/ 19/ 25 1004.6    2/ 3
COVE POINT MD    0336   37     200/ 18/ 22 1005.5F
SOLOMONS ISLAND  0312   37 47  190/ 12/ 14 1005.1
BISHOPS HEAD MD  0336   38 33  190/ 18/ 21 1005.8F
PINEY POINT MD   0336          200/ 16/ 19   N/A
POTOMAC MD       0400   38 45  190/ 17/ 21 1004.6    2/ 3
CAMBRIDGE MD     0336   36 41              1005.9F
LEWISETTA VA     0336   36 41  200/ 11/ 12 1005.5F
RAPPAHANNOCK LGT 0336          190/ 24/ 29 1007.0F
STINGRAY PT      0400   39 45  220/ 16/ 19 1006.4    2/ 3
YORK RVR RNG VA  0336   40     210/ 20/ 23 1007.1F
YORKTOWN VA      0336   39 47  190/ 10/ 17 1006.4F
JAMESTOWN VA     0400      46  210/ 12/ 16   N/A
DOMINION TERM VA 0336   38     170/ 16/ 21 1007.0F
KIPTOPEKE VA     0336      41  200/ 20/ 23   N/A
CAPE HENRY VA    0336   36     170/  9/ 12   N/A
WILLOUBY STN VA  0336          180/ 21/ 25 1006.6F
S CRANEY ISL VA  0336   38     200/  7/ 10 1007.4F
CAPE HENRY BUOY  0400      53                N/A     3/ 4
1ST LANDING BUOY 0400   40 49  200/ 19/ 25 1007.1    1/ 2
CAPE CHARLES BUO 0351      48                N/A     3/ 3
64NM E OF VA BCH 0350   45 58  240/ 17/ 21 1009.9R   4/ 5
DUCK PIER NC     0336   40 53  210/ 10/ 13 1009.1S
44100 DUCK FRF   0315      55                N/A     3/ 3
44056 DUCK FRF   0330      55                N/A     1/ 8
OREGON INLET NC  0336   42 42  210/ 15/ 18 1010.0F
HATTERAS NC      0336   48 49  230/ 12/ 17 1010.2R
DIAMOND SHLS NC  0350   54 74  230/ 19/ 27 1010.7R   5/ 7   3/ 7
CAPE LOOKOUT NC  0400          210/ 16/ 23 1010.0F
$$




USA.gov is the U.S. government's official web portal to all federal, state and local government web resources and services.